When you browse on this site, cookies collect data to enhance your experience and personalize the content and advertising you see.
Visit our Privacy Policy to learn more. By continuing to use the site, you agree to this use of cookies and data.
  • In Hungary
  • List of Countries
  • For 7 days
  • Water Temperature
  • Weather Map
  • News
  • Weather Widgets
  • user-avatar
    Login

    Hourly Weather Dighwara

    Today, 19 August, Monday

    Time Temperature Precipitation Wind Pressure Humidity
    00:00 +31°C° 0 mm 3 mps 747 mmHg 74%
    01:00 +31°C° 0.3 mm 3 mps 746 mmHg 75%
    02:00 +31°C° 0.3 mm 2 mps 746 mmHg 76%
    03:00 +30°C° 0.3 mm 2 mps 746 mmHg 78%
    04:00 +30°C° 0.1 mm 2 mps 746 mmHg 79%
    05:00 +30°C° 0.1 mm 3 mps 746 mmHg 81%
    06:00 +30°C° 0 mm 3 mps 746 mmHg 84%
    07:00 +31°C° 0.1 mm 3 mps 746 mmHg 79%
    08:00 +33°C° 0.1 mm 4 mps 746 mmHg 73%
    09:00 +34°C° 0.1 mm 5 mps 747 mmHg 67%
    10:00 +35°C° 0.1 mm 5 mps 747 mmHg 63%
    11:00 +36°C° 0.1 mm 6 mps 747 mmHg 60%
    12:00 +38°C° 0.1 mm 6 mps 747 mmHg 56%
    13:00 +38°C° 0 mm 6 mps 746 mmHg 55%
    14:00 +38°C° 0 mm 6 mps 745 mmHg 54%
    15:00 +39°C° 0 mm 6 mps 745 mmHg 53%
    16:00 +37°C° 0.1 mm 5 mps 744 mmHg 55%
    17:00 +37°C° 0.1 mm 5 mps 744 mmHg 57%
    18:00 +36°C° 0.1 mm 4 mps 744 mmHg 59%
    19:00 +35°C° 0.2 mm 4 mps 744 mmHg 63%
    20:00 +34°C° 0.2 mm 4 mps 745 mmHg 67%
    21:00 +34°C° 0.2 mm 3 mps 746 mmHg 71%
    22:00 +33°C° 0 mm 3 mps 745 mmHg 73%
    23:00 +33°C° 0 mm 3 mps 745 mmHg 75%

    Tomorrow, 20 August, Tuesday

    Time Temperature Precipitation Wind Pressure Humidity
    00:00 +33°C° 0 mm 3 mps 745 mmHg 76%
    01:00 +31°C° 0.1 mm 3 mps 745 mmHg 77%
    02:00 +31°C° 0.1 mm 3 mps 745 mmHg 78%
    03:00 +31°C° 0.1 mm 3 mps 745 mmHg 80%
    04:00 +30°C° 0 mm 3 mps 745 mmHg 80%
    05:00 +30°C° 0 mm 3 mps 745 mmHg 81%
    06:00 +30°C° 0 mm 3 mps 745 mmHg 82%
    07:00 +31°C° 0.5 mm 3 mps 745 mmHg 76%
    08:00 +33°C° 0.5 mm 3 mps 746 mmHg 70%
    09:00 +35°C° 0.5 mm 4 mps 746 mmHg 64%
    10:00 +36°C° 0.4 mm 4 mps 746 mmHg 61%
    11:00 +37°C° 0.4 mm 5 mps 746 mmHg 58%
    12:00 +39°C° 0.4 mm 5 mps 746 mmHg 54%
    13:00 +39°C° 0 mm 5 mps 745 mmHg 53%
    14:00 +39°C° 0 mm 5 mps 744 mmHg 53%
    15:00 +39°C° 0 mm 5 mps 743 mmHg 52%
    16:00 +39°C° 0 mm 5 mps 743 mmHg 54%
    17:00 +37°C° 0 mm 4 mps 743 mmHg 56%
    18:00 +37°C° 0 mm 4 mps 742 mmHg 57%
    19:00 +36°C° 0 mm 4 mps 743 mmHg 60%
    20:00 +35°C° 0 mm 4 mps 744 mmHg 63%
    21:00 +35°C° 0 mm 4 mps 744 mmHg 65%
    22:00 +34°C° 0 mm 4 mps 744 mmHg 67%
    23:00 +34°C° 0 mm 4 mps 744 mmHg 68%

    Day after tomorrow, 21 August, Wednesday

    Time Temperature Precipitation Wind Pressure Humidity
    00:00 +34°C° 0 mm 4 mps 744 mmHg 70%
    01:00 +33°C° 0.2 mm 4 mps 744 mmHg 71%
    02:00 +33°C° 0.2 mm 4 mps 744 mmHg 73%
    03:00 +31°C° 0.2 mm 3 mps 743 mmHg 75%
    04:00 +32°C° 0.1 mm 4 mps 743 mmHg 76%
    05:00 +32°C° 0.1 mm 4 mps 744 mmHg 78%
    06:00 +32°C° 0.1 mm 4 mps 744 mmHg 80%
    07:00 +32°C° 0 mm 5 mps 744 mmHg 75%
    08:00 +33°C° 0 mm 5 mps 745 mmHg 71%
    09:00 +34°C° 0 mm 5 mps 745 mmHg 67%
    10:00 +36°C° 0 mm 5 mps 745 mmHg 62%
    11:00 +38°C° 0 mm 6 mps 745 mmHg 58%
    12:00 +39°C° 0 mm 6 mps 744 mmHg 53%
    13:00 +39°C° 0 mm 6 mps 744 mmHg 52%
    14:00 +40°C° 0 mm 5 mps 743 mmHg 51%
    15:00 +40°C° 0 mm 5 mps 743 mmHg 50%
    16:00 +39°C° 0 mm 5 mps 743 mmHg 52%
    17:00 +39°C° 0 mm 5 mps 742 mmHg 54%
    18:00 +37°C° 0 mm 4 mps 742 mmHg 56%
    19:00 +37°C° 0 mm 4 mps 743 mmHg 59%
    20:00 +36°C° 0 mm 4 mps 743 mmHg 61%
    21:00 +35°C° 0 mm 4 mps 744 mmHg 64%
    22:00 +34°C° 0.4 mm 3 mps 744 mmHg 67%
    23:00 +34°C° 0.4 mm 3 mps 744 mmHg 69%

    22 August, Thursday

    Time Temperature Precipitation Wind Pressure Humidity
    00:00 +33°C° 0.4 mm 3 mps 744 mmHg 72%
    01:00 +33°C° 0.5 mm 3 mps 744 mmHg 74%
    02:00 +33°C° 0.5 mm 3 mps 744 mmHg 76%
    03:00 +33°C° 0.5 mm 3 mps 743 mmHg 77%
    04:00 +31°C° 1.7 mm 3 mps 744 mmHg 79%
    05:00 +31°C° 1.7 mm 3 mps 744 mmHg 80%
    06:00 +31°C° 1.7 mm 2 mps 744 mmHg 81%
    07:00 +31°C° 1.1 mm 2 mps 744 mmHg 77%
    08:00 +32°C° 1.1 mm 2 mps 745 mmHg 73%
    09:00 +34°C° 1.1 mm 2 mps 746 mmHg 69%
    10:00 +36°C° 0.1 mm 2 mps 745 mmHg 64%
    11:00 +37°C° 0.1 mm 2 mps 745 mmHg 58%
    12:00 +38°C° 0.1 mm 2 mps 745 mmHg 52%
    13:00 +39°C° 0 mm 2 mps 744 mmHg 50%
    14:00 +39°C° 0 mm 2 mps 744 mmHg 47%
    15:00 +40°C° 0 mm 2 mps 743 mmHg 45%
    16:00 +39°C° 0 mm 2 mps 743 mmHg 49%
    17:00 +38°C° 0 mm 2 mps 742 mmHg 52%
    18:00 +38°C° 0 mm 2 mps 742 mmHg 55%
    19:00 +37°C° 0 mm 2 mps 743 mmHg 57%
    20:00 +37°C° 0 mm 2 mps 743 mmHg 59%
    21:00 +35°C° 0 mm 1 mps 744 mmHg 60%
    22:00 +34°C° 0.4 mm 1 mps 744 mmHg 63%
    23:00 +34°C° 0.4 mm 1 mps 744 mmHg 66%

    23 August, Friday

    Time Temperature Precipitation Wind Pressure Humidity
    00:00 +33°C° 0.4 mm 1 mps 744 mmHg 68%
    01:00 +33°C° 0.4 mm 1 mps 744 mmHg 70%
    02:00 +33°C° 0.4 mm 1 mps 744 mmHg 71%
    03:00 +32°C° 0.4 mm 1 mps 743 mmHg 73%
    04:00 +32°C° 0 mm 1 mps 743 mmHg 75%
    05:00 +32°C° 0 mm 1 mps 744 mmHg 76%
    06:00 +31°C° 0 mm 1 mps 744 mmHg 78%
    07:00 +32°C° 0.9 mm 1 mps 744 mmHg 73%
    08:00 +34°C° 0.9 mm 1 mps 745 mmHg 68%
    09:00 +35°C° 0.9 mm 1 mps 745 mmHg 62%
    10:00 +36°C° 0.4 mm 1 mps 745 mmHg 58%
    11:00 +37°C° 0.4 mm 1 mps 745 mmHg 54%
    12:00 +39°C° 0.4 mm 2 mps 745 mmHg 50%
    13:00 +39°C° 0 mm 2 mps 744 mmHg 50%
    14:00 +39°C° 0 mm 2 mps 743 mmHg 49%
    15:00 +39°C° 0 mm 2 mps 743 mmHg 49%
    16:00 +38°C° 0 mm 2 mps 743 mmHg 51%
    17:00 +38°C° 0 mm 2 mps 743 mmHg 54%
    18:00 +38°C° 0 mm 2 mps 743 mmHg 57%
    19:00 +37°C° 0 mm 2 mps 744 mmHg 59%
    20:00 +36°C° 0 mm 2 mps 744 mmHg 61%
    21:00 +35°C° 0 mm 2 mps 745 mmHg 63%
    22:00 +35°C° 0.2 mm 2 mps 745 mmHg 64%
    23:00 +34°C° 0.2 mm 3 mps 745 mmHg 66%

    24 August, Saturday

    Time Temperature Precipitation Wind Pressure Humidity
    00:00 +34°C° 0.2 mm 3 mps 745 mmHg 68%
    01:00 +33°C° 0.1 mm 3 mps 745 mmHg 70%
    02:00 +33°C° 0.1 mm 3 mps 745 mmHg 71%
    03:00 +33°C° 0.1 mm 3 mps 745 mmHg 73%
    04:00 +31°C° 0.5 mm 3 mps 745 mmHg 75%
    05:00 +31°C° 0.5 mm 3 mps 745 mmHg 76%
    06:00 +31°C° 0.5 mm 3 mps 746 mmHg 78%
    07:00 +32°C° 0.8 mm 4 mps 746 mmHg 78%
    08:00 +32°C° 0.8 mm 5 mps 747 mmHg 78%
    09:00 +32°C° 0.8 mm 5 mps 747 mmHg 78%
    10:00 +32°C° 0.3 mm 6 mps 748 mmHg 76%
    11:00 +32°C° 0.3 mm 7 mps 748 mmHg 75%
    12:00 +32°C° 0.3 mm 8 mps 748 mmHg 73%
    13:00 +33°C° 0 mm 7 mps 747 mmHg 72%
    14:00 +33°C° 0 mm 7 mps 747 mmHg 71%
    15:00 +33°C° 0 mm 7 mps 746 mmHg 71%
    16:00 +32°C° 0 mm 6 mps 746 mmHg 73%
    17:00 +32°C° 0 mm 5 mps 746 mmHg 75%
    18:00 +30°C° 0 mm 5 mps 745 mmHg 77%
    19:00 +30°C° 0 mm 4 mps 746 mmHg 78%
    20:00 +29°C° 0 mm 4 mps 746 mmHg 80%
    21:00 +29°C° 0 mm 3 mps 747 mmHg 81%
    22:00 +29°C° 0.1 mm 3 mps 747 mmHg 83%
    23:00 +29°C° 0.1 mm 3 mps 747 mmHg 84%
    Show more